Location: Unspecified
(0.0000°N, 0.0000°E)
Time: 12:35:50
(UTC+00:00)

LES 2 - Pass Details

Date: 21 August 2024
Orbit: 2771 x 14805 km, 32.2° (Epoch: 15 September)

Event Time Altitude Azimuth Distance (km) Brightness Sun altitude
Exits shadow 04:49:26 10° 237° (WSW) 12,781 ? -18.0°
Reaches altitude 10° 04:49:28 10° 237° (WSW) 12,781 ? -18.0°
Maximum altitude 06:41:44 70° 308° (NW) 14,903 ? 9.4°
Drops below altitude 10° 08:17:11 10° 47° (NE) 10,641 ? 32.7°
Sets 08:23:51 0° 52° (NE) 10,681 ? 34.3°
